Total_Precipitation_Accumulation
0.16 0.16 0.24 0.43 0.56 0.51 0.53 0.60 0.84 0.76 0.60 0.54 0.51 0.53 0.54 0.56 0.56 0.52 0.56 0.56 0.55 0.55 0.56 0.63 0.63 0.60 0.65 0.72 0.83 0.98 1.05 0.94 0.80 0.68 0.58 0.53 0.56 0.53 0.54 0.61 0.64 0.71 0.76 0.87
0.04 0.06 0.15 0.37 0.49 0.52 0.52 0.48 0.47 0.42 0.40 0.30 0.29 0.34 0.33 0.32 0.33 0.32 0.32 0.33 0.31 0.28 0.28 0.33 0.33 0.35 0.39 0.47 0.62 0.85 0.93 0.81 0.64 0.56 0.53 0.49 0.48 0.45 0.44 0.47 0.53 0.58 0.64 0.80
0.05 0.06 0.14 0.38 0.42 0.46 0.35 0.20 0.17 0.23 0.24 0.17 0.18 0.26 0.26 0.27 0.29 0.25 0.23 0.23 0.24 0.22 0.20 0.20 0.20 0.23 0.30 0.36 0.50 0.60 0.62 0.58 0.47 0.41 0.40 0.39 0.38 0.38 0.41 0.43 0.47 0.52 0.56 0.73
0.09 0.12 0.33 0.59 0.46 0.39 0.31 0.16 0.10 0.11 0.11 0.12 0.16 0.20 0.19 0.22 0.27 0.24 0.20 0.21 0.21 0.21 0.20 0.21 0.22 0.23 0.32 0.37 0.39 0.45 0.52 0.50 0.44 0.39 0.36 0.36 0.34 0.36 0.44 0.45 0.44 0.49 0.55 0.59
0.16 0.19 0.37 0.46 0.31 0.26 0.34 0.33 0.12 0.08 0.08 0.10 0.11 0.15 0.13 0.13 0.17 0.17 0.14 0.13 0.13 0.13 0.12 0.12 0.12 0.11 0.13 0.17 0.22 0.27 0.30 0.35 0.34 0.29 0.30 0.34 0.34 0.39 0.43 0.44 0.48 0.50 0.55 0.58
0.23 0.25 0.37 0.31 0.14 0.11 0.23 0.43 0.17 0.06 0.05 0.04 0.05 0.08 0.06 0.06 0.06 0.05 0.04 0.03 0.03 0.03 0.03 0.03 0.02 0.03 0.04 0.05 0.06 0.09 0.10 0.14 0.18 0.19 0.23 0.29 0.38 0.44 0.42 0.41 0.46 0.48 0.47 0.47
0.37 0.46 0.62 0.42 0.18 0.13 0.30 0.40 0.15 0.04 0.01 0.01 0.01 0.02 0.02 0.03 0.03 0.01 0.00 0.00 0.00 0.00 0.01 0.01 0.01 0.01 0.02 0.02 0.02 0.02 0.02 0.04 0.07 0.11 0.17 0.25 0.33 0.32 0.33 0.36 0.39 0.41 0.44 0.43
0.55 0.71 0.88 0.57 0.34 0.30 0.27 0.14 0.06 0.01 0.00 0.00 0.00 0.00 0.01 0.02 0.02 0.01 0.00 0.00 0.00 0.00 0.00 0.00 0.00 0.00 0.00 0.00 0.00 0.00 0.00 0.01 0.02 0.04 0.07 0.12 0.20 0.23 0.26 0.30 0.32 0.32 0.32 0.33
0.60 0.62 0.57 0.41 0.30 0.20 0.15 0.09 0.02 0.00 0.00 0.00 0.00 0.00 0.00 0.01 0.01 0.01 0.00 0.00 0.00 0.00 0.00 0.00 0.00 0.00 0.00 0.00 0.00 0.00 0.00 0.00 0.00 0.01 0.02 0.06 0.12 0.17 0.21 0.27 0.29 0.28 0.26 0.28
0.18 0.21 0.19 0.16 0.11 0.07 0.06 0.05 0.01 0.00 0.00 0.00 0.00 0.00 0.00 0.00 0.01 0.01 0.00 0.00 0.00 0.00 0.00 0.00 0.00 0.00 0.00 0.00 0.00 0.00 0.00 0.00 0.00 0.01 0.01 0.03 0.06 0.13 0.21 0.24 0.23 0.24 0.26 0.28
0.04 0.05 0.06 0.07 0.05 0.03 0.03 0.02 0.01 0.00 0.00 0.00 0.00 0.00 0.00 0.00 0.01 0.01 0.01 0.00 0.00 0.00 0.00 0.00 0.00 0.00 0.00 0.00 0.00 0.00 0.00 0.00 0.00 0.00 0.01 0.02 0.02 0.06 0.13 0.15 0.14 0.18 0.23 0.27
0.01 0.01 0.02 0.04 0.02 0.01 0.02 0.01 0.00 0.00 0.00 0.00 0.00 0.00 0.00 0.00 0.00 0.01 0.01 0.00 0.00 0.00 0.00 0.00 0.00 0.00 0.00 0.00 0.00 0.00 0.00 0.00 0.00 0.00 0.01 0.02 0.02 0.03 0.05 0.05 0.07 0.08 0.09 0.13
0.01 0.00 0.00 0.01 0.01 0.00 0.01 0.00 0.00 0.00 0.00 0.00 0.00 0.00 0.00 0.00 0.00 0.01 0.01 0.00 0.00 0.00 0.00 0.00 0.00 0.00 0.00 0.00 0.00 0.00 0.00 0.00 0.00 0.01 0.01 0.01 0.02 0.05 0.05 0.03 0.01 0.02 0.02 0.03
0.00 0.00 0.00 0.00 0.00 0.00 0.00 0.00 0.00 0.00 0.00 0.00 0.00 0.00 0.00 0.00 0.00 0.00 0.00 0.00 0.00 0.00 0.00 0.00 0.00 0.00 0.00 0.00 0.00 0.00 0.00 0.00 0.00 0.02 0.02 0.02 0.04 0.07 0.13 0.16 0.11 0.04 0.02 0.01
0.00 0.00 0.01 0.01 0.00 0.00 0.00 0.00 0.00 0.00 0.00 0.00 0.00 0.00 0.00 0.00 0.00 0.00 0.00 0.00 0.00 0.00 0.00 0.00 0.00 0.00 0.00 0.00 0.00 0.00 0.00 0.01 0.01 0.04 0.04 0.05 0.06 0.11 0.13 0.13 0.10 0.06 0.03 0.02
0.00 0.01 0.01 0.01 0.01 0.00 0.00 0.00 0.00 0.00 0.00 0.00 0.00 0.00 0.00 0.00 0.00 0.00 0.00 0.00 0.00 0.00 0.00 0.00 0.00 0.00 0.00 0.00 0.00 0.00 0.00 0.00 0.01 0.03 0.05 0.04 0.05 0.07 0.09 0.08 0.06 0.05 0.04 0.04
0.01 0.01 0.01 0.01 0.00 0.00 0.00 0.00 0.00 0.00 0.00 0.00 0.00 0.00 0.00 0.00 0.00 0.00 0.00 0.00 0.00 0.00 0.00 0.00 0.00 0.00 0.00 0.00 0.00 0.00 0.00 0.00 0.01 0.02 0.05 0.04 0.04 0.03 0.04 0.06 0.04 0.04 0.03 0.02
0.02 0.01 0.01 0.01 0.01 0.00 0.00 0.00 0.00 0.00 0.00 0.00 0.00 0.00 0.00 0.00 0.00 0.00 0.00 0.00 0.00 0.00 0.00 0.00 0.00 0.00 0.00 0.00 0.00 0.00 0.00 0.01 0.01 0.04 0.06 0.06 0.05 0.04 0.04 0.05 0.04 0.04 0.03 0.03
0.02 0.02 0.01 0.01 0.01 0.01 0.00 0.00 0.00 0.00 0.00 0.00 0.00 0.00 0.00 0.00 0.00 0.01 0.01 0.01 0.01 0.02 0.02 0.01 0.01 0.00 0.00 0.00 0.00 0.00 0.01 0.01 0.01 0.03 0.04 0.04 0.05 0.04 0.05 0.06 0.06 0.05 0.04 0.04
0.04 0.03 0.03 0.02 0.01 0.01 0.01 0.01 0.00 0.00 0.00 0.00 0.00 0.00 0.00 0.00 0.01 0.01 0.01 0.01 0.02 0.02 0.03 0.03 0.03 0.03 0.03 0.02 0.02 0.02 0.02 0.03 0.03 0.04 0.04 0.05 0.06 0.06 0.06 0.06 0.06 0.05 0.06 0.06
0.04 0.03 0.03 0.02 0.01 0.01 0.01 0.01 0.01 0.01 0.01 0.01 0.01 0.02 0.02 0.01 0.01 0.01 0.00 0.00 0.00 0.01 0.01 0.03 0.04 0.05 0.05 0.05 0.05 0.04 0.05 0.05 0.06 0.06 0.07 0.06 0.06 0.06 0.06 0.06 0.06 0.06 0.07 0.07
0.02 0.02 0.02 0.01 0.01 0.01 0.00 0.01 0.01 0.01 0.01 0.02 0.03 0.02 0.02 0.01 0.01 0.01 0.01 0.01 0.01 0.01 0.01 0.03 0.03 0.03 0.04 0.04 0.04 0.04 0.05 0.05 0.05 0.06 0.07 0.08 0.08 0.08 0.09 0.08 0.08 0.07 0.07 0.07
0.02 0.02 0.02 0.02 0.02 0.02 0.02 0.02 0.02 0.02 0.02 0.03 0.03 0.02 0.02 0.02 0.02 0.02 0.02 0.02 0.01 0.02 0.02 0.02 0.03 0.03 0.04 0.03 0.02 0.01 0.02 0.03 0.03 0.04 0.05 0.07 0.08 0.09 0.10 0.09 0.09 0.08 0.09 0.08
0.04 0.03 0.03 0.03 0.03 0.03 0.03 0.03 0.03 0.04 0.05 0.05 0.04 0.04 0.05 0.05 0.05 0.05 0.04 0.04 0.04 0.04 0.04 0.04 0.04 0.06 0.06 0.04 0.02 0.02 0.02 0.03 0.03 0.03 0.04 0.05 0.06 0.07 0.08 0.09 0.09 0.08 0.08 0.09
0.04 0.03 0.02 0.02 0.03 0.03 0.03 0.03 0.03 0.03 0.04 0.05 0.06 0.06 0.06 0.06 0.07 0.08 0.08 0.08 0.08 0.09 0.09 0.09 0.10 0.10 0.09 0.07 0.05 0.05 0.05 0.05 0.05 0.05 0.05 0.06 0.07 0.08 0.09 0.10 0.10 0.10 0.09 0.09
0.05 0.03 0.03 0.03 0.03 0.03 0.04 0.04 0.04 0.03 0.04 0.04 0.04 0.06 0.06 0.07 0.08 0.09 0.10 0.11 0.13 0.13 0.13 0.13 0.13 0.12 0.11 0.10 0.08 0.08 0.08 0.08 0.08 0.07 0.07 0.07 0.08 0.08 0.09 0.10 0.11 0.12 0.13 0.12
0.05 0.04 0.03 0.03 0.03 0.03 0.04 0.04 0.05 0.05 0.06 0.05 0.05 0.06 0.07 0.07 0.07 0.08 0.09 0.11 0.13 0.15 0.16 0.16 0.15 0.15 0.13 0.11 0.11 0.11 0.11 0.10 0.10 0.10 0.10 0.10 0.11 0.11 0.12 0.12 0.13 0.14 0.14 0.15